This demonstration page uses our WeatherBlox Daily Observations layout. Learn more.

38.88101, -77.10428

Hourly Observations for June 30, 2015

Temp ( °F °C ) Dew Point ( °F °C ) Humidity (%) Winds ( mph kmh ) Pressure ( in mb ) Visibility ( mi km ) Precip ( " mm )
12:52 am 00:52 Mostly Clear 72 22.2 63 17.2 73 73 S 6 9 29.94 1014 10 16.0934 0 0
1:52 am 01:52 Clear 73 22.8 64 17.8 74 74 S 5 7 29.93 1014 10 16.0934 0 0
2:52 am 02:52 Clear 72 22.2 65 18.3 79 79 S 5 7 29.91 1013 10 16.0934 0 0
3:52 am 03:52 Clear 71 21.7 65 18.3 81 81 SSW 3 6 29.9 1013 10 16.0934 0 0
4:52 am 04:52 Mostly Clear 72 22.2 67 19.4 84 84 SSE 6 9 29.9 1012 10 16.0934 0 0
5:52 am 05:52 Partly Cloudy 72 22.2 68 20 87 87 S 7 11 29.9 1013 10 16.0934 0 0
6:52 am 06:52 Mostly Cloudy 73 22.8 69 20.6 87 87 S 6 9 29.92 1013 10 16.0934 0 0
7:52 am 07:52 Mostly Cloudy 76 24.4 70 21.1 82 82 S 8 13 29.91 1013 10 16.0934 0 0
8:52 am 08:52 Cloudy 76 24.4 70 21.1 82 82 S 7 11 29.91 1013 10 16.0934 0 0
9:16 am 09:16 Cloudy with Light Rain 75 24 70 21 83 83 S 7 11 29.91 1013 10 16.0934 0 0
9:27 am 09:27 Cloudy 75 24 72 22 89 89 S 8 13 29.91 1013 10 16.0934 0 0.0254
9:52 am 09:52 Cloudy 78 25.6 71 21.7 79 79 S 6 9 29.92 1013 10 16.0934 0 0.0254
10:33 am 10:33 Cloudy with Light Rain 79 26 72 22 79 79 S 7 11 29.91 1013 10 16.0934 0 0.0254
10:42 am 10:42 Mostly Cloudy with Rain 77 25 72 22 83 83 SSE 6 9 29.91 1013 7 11.26538 0 0
10:52 am 10:52 Mostly Cloudy 78 25.6 73 22.8 85 85 SSW 6 9 29.91 1013 10 16.0934 0.01 0.254
11:09 am 11:09 Partly Cloudy 81 27 73 23 79 79 SW 7 11 29.91 1013 10 16.0934 0 0
11:52 am 11:52 Partly Cloudy 82 27.8 73 22.8 74 74 S 8 13 29.9 1012 10 16.0934 0 0
12:52 pm 12:52 Mostly Cloudy 83 28.3 69 20.6 63 63 S 7 11 29.88 1012 10 16.0934 0 0
1:52 pm 13:52 Partly Cloudy 87 30.6 68 20 53 53 SW 15 24 29.86 1011 10 16.0934 0 0
2:52 pm 14:52 Partly Cloudy 88 31.1 70 21.1 55 55 S 12 19 29.83 1010 10 16.0934 0 0
3:52 pm 15:52 Mostly Cloudy 89 31.7 69 20.6 52 52 SSW 16 26 29.81 1010 10 16.0934 0 0
4:52 pm 16:52 Mostly Cloudy 88 31.1 67 19.4 50 50 SSW 15 24 29.78 1009 10 16.0934 0 0
5:52 pm 17:52 Mostly Cloudy 88 31.1 67 19.4 50 50 SW 18 30 29.79 1009 10 16.0934 0 0
6:52 pm 18:52 Cloudy 87 30.6 66 18.9 50 50 SSW 12 19 29.8 1009 10 16.0934 0 0
7:52 pm 19:52 Cloudy 85 29.4 68 20 57 57 SSW 9 15 29.81 1010 10 16.0934 0 0
8:52 pm 20:52 Mostly Cloudy 81 27.2 69 20.6 67 67 S 9 15 29.81 1010 10 16.0934 0 0
9:52 pm 21:52 Mostly Cloudy 80 26.7 68 20 67 67 S 8 13 29.82 1010 10 16.0934 0 0
10:52 pm 22:52 Cloudy 78 25.6 69 20.6 74 74 SSW 8 13 29.81 1010 10 16.0934 0 0
11:52 pm 23:52 Cloudy 79 26.1 69 20.6 72 72 S 7 11 29.81 1010 10 16.0934 0 0

Powered by AerisWeather